Theta_e
293 292 291 291 290 290 290 289 289 289 287 286 285 284 283 283 283 282 281 280 279 278 278 277 277 276 276 275 275 275 275 276 277 277 278 277 276 275 275 275 276 276 278
292 291 291 290 289 289 289 288 289 288 286 285 284 283 283 283 282 281 279 278 278 277 276 275 275 274 273 273 272 272 272 273 274 274 274 274 274 273 273 274 274 275 276
292 291 289 289 289 288 287 287 287 287 285 283 283 282 282 282 280 279 278 277 277 276 274 273 273 272 272 271 271 271 271 272 272 272 272 272 272 273 273 273 274 275 276
291 290 288 288 288 287 286 286 286 285 284 282 282 282 281 280 279 278 278 277 275 274 273 273 272 272 271 271 271 271 271 271 271 272 272 272 273 273 274 274 274 275 276
290 288 288 286 286 285 284 285 285 284 282 282 281 280 280 279 278 278 277 275 274 273 273 272 272 272 272 273 273 273 273 273 273 274 274 274 275 276 276 276 276 276 277
289 287 286 285 284 283 283 284 283 282 281 280 279 279 278 278 278 277 275 275 274 273 273 273 272 272 272 273 274 275 275 276 276 276 276 277 276 276 276 276 277 277 278
288 286 285 282 281 280 282 282 280 279 279 278 277 277 277 277 277 276 276 275 274 273 273 272 272 273 273 273 274 274 275 274 275 276 276 276 276 276 276 276 276 277 277
287 285 282 281 279 279 280 279 278 277 277 277 276 276 276 276 276 275 276 275 274 273 273 273 273 273 274 274 274 275 275 275 275 275 275 275 275 276 276 276 276 276 277
285 283 281 280 278 277 277 276 276 275 275 275 276 275 275 275 275 275 275 274 274 273 273 273 273 273 274 275 276 276 275 275 275 275 275 276 277 277 278 278 279 278 278
285 283 280 279 278 276 276 275 275 275 274 274 274 275 275 274 274 274 275 274 274 274 273 274 274 274 274 275 277 276 274 273 273 275 274 273 273 273 274 275 277 279 279
284 282 279 278 277 276 275 274 273 273 273 273 273 273 273 274 272 274 275 274 274 274 274 274 273 273 275 276 276 275 272 274 274 270 269 271 271 272 273 275 278 278 278
282 279 277 276 275 274 273 272 272 272 271 271 271 270 272 272 272 274 274 275 275 276 274 273 273 274 274 274 273 272 273 272 269 269 269 270 271 271 272 273 274 276 278
279 276 275 274 274 273 272 271 270 270 270 270 270 271 271 271 272 273 274 274 275 274 274 273 272 271 271 270 269 270 270 268 268 269 269 270 271 271 271 272 272 274 275
276 274 272 272 271 271 270 270 270 270 270 271 271 272 271 271 271 272 273 273 273 273 272 271 269 269 268 268 267 267 267 267 268 268 269 269 270 271 271 271 272 274 275
275 272 271 270 270 269 270 270 270 271 272 272 272 272 271 270 271 273 273 273 273 272 271 269 268 266 265 266 266 266 266 267 267 268 268 268 270 270 271 271 271 273 273
274 271 271 270 269 269 269 270 271 271 273 273 272 273 271 272 273 274 274 274 272 270 267 265 264 264 264 264 265 265 266 266 267 267 268 269 270 270 271 271 270 271 271
275 272 270 269 269 270 270 271 272 274 274 274 273 272 271 273 273 273 273 270 269 267 265 264 263 263 263 263 264 264 265 265 266 266 267 268 270 271 270 270 269 270 270
274 271 270 270 270 270 271 272 272 273 273 273 273 273 272 273 273 272 270 267 265 264 264 264 263 263 262 262 262 263 264 264 265 266 266 268 271 271 270 269 269 269 269
274 271 270 270 270 270 271 271 272 271 271 270 271 271 271 272 272 271 265 265 264 264 264 264 263 263 262 262 262 262 263 263 264 265 267 268 271 270 269 269 269 269 269
273 271 270 270 270 269 270 269 269 269 268 268 269 266 268 270 267 264 263 263 263 263 264 264 264 263 263 262 262 262 262 263 264 265 267 269 270 269 269 269 269 269 269
272 270 270 270 269 270 269 269 268 267 267 266 266 266 266 266 264 263 263 263 263 264 264 263 263 264 263 262 262 262 262 263 264 266 266 270 269 269 268 268 268 269 269
270 270 269 269 268 268 268 268 267 266 266 265 265 267 266 264 263 263 262 262 262 262 263 263 264 264 263 263 263 262 262 262 264 266 266 269 268 268 268 268 268 268 269
268 268 268 267 267 266 266 266 265 265 264 264 265 265 262 262 262 262 261 261 261 262 263 263 264 265 265 265 265 265 264 264 264 265 269 268 268 268 268 268 268 268 268
267 267 266 266 266 265 265 264 263 263 262 262 263 262 261 261 261 261 261 261 261 262 262 262 263 265 265 265 265 266 267 268 268 267 269 268 267 267 267 267 268 268 268
265 265 265 264 264 263 263 262 261 261 261 262 261 261 261 261 261 261 260 260 261 261 262 262 263 265 265 265 266 266 268 268 268 270 269 268 267 267 267 267 267 267 267
263 263 263 262 262 262 261 260 260 260 260 260 261 261 261 261 261 260 260 261 261 262 262 262 263 264 265 265 266 267 268 268 270 269 269 267 267 266 266 267 267 267 267
Wind_Speed
43 44 42 45 46 46 46 46 43 38 37 35 31 26 21 17 13 12 12 13 14 15 16 16 15 14 17 18 16 15 17 19 19 56 32 35 36 38 36 35 39 42 43
41 41 41 40 41 42 42 42 41 39 37 35 32 27 23 18 15 13 13 13 14 14 13 13 13 12 16 18 16 17 18 19 26 34 44 42 38 37 38 40 40 40 41
39 41 38 40 41 41 41 41 40 38 36 33 29 26 22 17 15 13 13 12 13 13 13 13 14 14 18 17 16 17 19 22 24 31 46 40 43 39 38 39 41 43 41
40 39 38 39 42 41 41 40 40 38 38 34 30 25 21 18 15 14 13 12 11 11 12 13 14 15 20 20 19 22 25 25 27 32 38 43 37 40 37 36 41 37 40
36 36 38 37 39 40 40 39 40 39 38 35 30 25 22 19 17 15 14 13 12 11 11 11 14 18 18 21 24 23 25 26 27 29 32 33 35 33 31 31 35 42 40
35 35 35 37 39 41 41 42 42 40 38 34 31 27 24 21 17 15 13 12 11 10 9 11 14 18 22 23 24 27 30 33 32 31 33 29 38 36 38 37 36 33 20
33 33 36 37 38 40 43 44 44 44 40 35 30 26 23 19 16 15 16 12 11 11 9 12 14 16 20 24 26 29 32 35 38 41 43 41 42 39 39 41 38 38 39
31 32 35 38 36 38 42 41 40 42 42 38 34 29 25 21 17 15 14 14 12 11 11 12 15 20 21 23 28 30 33 36 38 40 43 49 45 46 44 46 46 47 50
29 33 37 39 36 38 37 37 37 37 37 36 34 30 27 22 20 17 16 15 13 12 11 13 17 20 22 23 28 32 34 37 33 36 43 47 48 51 51 46 37 30 20
32 33 34 36 38 40 39 37 38 37 35 34 31 29 25 22 19 18 17 16 13 12 12 13 15 20 22 24 28 31 29 35 38 35 35 31 39 45 47 48 48 32 25
26 31 34 35 36 34 35 35 38 37 34 32 31 28 26 21 19 16 16 15 12 11 13 13 15 18 21 26 28 27 29 38 35 35 35 32 33 35 34 35 39 41 36
28 31 31 31 30 33 35 31 34 35 31 28 28 25 22 21 18 18 15 13 10 7 8 12 18 18 24 24 24 23 29 31 32 31 32 31 32 33 33 34 38 43 43
27 26 28 31 32 36 36 33 30 29 27 24 23 20 19 20 19 15 14 11 7 6 7 11 15 18 18 19 19 23 25 25 26 27 30 31 33 38 40 39 39 40 45
24 21 26 30 29 31 29 31 30 29 24 23 20 19 19 19 20 18 14 11 7 6 7 11 11 12 12 14 17 19 21 23 26 29 30 34 36 36 35 34 36 34 33
25 28 29 24 28 30 31 34 31 29 30 29 25 27 25 20 24 17 12 9 8 3 6 6 11 14 14 17 19 20 22 24 26 28 30 33 34 36 34 34 32 32 29
23 23 23 27 34 34 31 26 24 26 21 20 23 28 22 19 16 14 11 8 5 2 1 7 11 12 13 17 19 22 24 25 27 30 33 32 34 34 33 33 34 29 24
25 26 25 25 27 26 27 30 24 28 25 25 24 26 22 20 15 14 10 9 6 3 6 8 10 13 16 17 18 21 25 28 32 30 34 35 35 36 35 31 30 27 24
28 28 31 30 29 29 31 27 29 29 25 25 24 25 23 20 18 14 12 11 8 5 6 8 11 13 17 18 20 22 26 29 31 32 35 36 36 37 33 30 28 25 23
29 27 26 25 27 30 28 27 25 24 26 26 26 24 22 21 19 14 9 10 7 3 7 6 10 13 17 20 23 24 26 28 33 33 34 36 39 38 34 33 31 32 31
26 25 27 27 26 26 26 23 20 21 24 26 23 24 26 25 22 17 12 9 5 3 5 7 10 13 17 21 24 26 27 29 31 32 35 34 41 39 35 34 32 29 26
23 25 25 26 27 26 25 26 25 24 21 21 18 27 26 26 23 17 13 9 5 5 3 6 10 13 18 22 25 28 30 30 30 32 35 38 42 40 39 36 35 32 30
24 27 27 26 28 28 26 26 26 25 24 23 24 22 20 22 19 15 11 7 3 1 2 7 11 15 19 23 26 29 30 32 32 33 34 42 41 42 40 38 35 33 30
26 27 25 25 27 29 28 27 28 26 24 25 23 23 21 19 17 13 9 5 3 2 2 6 9 13 18 22 26 29 33 35 35 38 34 41 41 42 43 39 37 33 30
23 24 25 24 26 26 26 26 25 25 27 27 26 23 19 16 14 10 6 4 3 2 4 7 9 12 18 22 24 28 32 36 39 32 38 38 39 43 42 41 38 40 35
21 22 22 24 25 25 26 24 24 25 27 29 25 20 16 13 11 7 5 3 4 5 6 8 9 11 16 20 23 26 30 33 37 31 40 36 40 42 42 40 41 40 37
22 22 22 22 23 23 23 23 23 25 25 25 22 17 14 11 9 6 4 4 5 7 9 11 11 11 14 18 22 26 30 33 35 39 39 34 38 41 42 41 44 40 38
Wind_Direction
215 212 210 214 216 217 220 218 215 207 200 198 197 198 201 203 208 223 235 239 243 251 258 269 277 289 295 289 285 275 268 265 271 287 288 296 297 300 305 302 295 292 289
214 214 213 214 215 216 215 216 209 204 202 199 198 197 200 203 212 218 226 239 251 260 271 277 283 296 284 282 275 268 263 263 267 280 292 296 297 301 298 295 294 290 288
211 212 208 211 214 212 210 210 206 204 202 200 200 200 201 203 207 215 226 236 251 261 269 277 287 291 280 273 266 266 264 262 263 272 284 289 293 296 294 292 292 293 289
207 203 203 206 208 208 207 205 203 203 202 200 201 202 203 203 207 214 228 237 246 258 270 278 283 272 270 273 269 262 262 260 260 260 270 282 284 289 287 288 292 288 287
198 199 202 202 202 205 202 202 202 202 202 202 198 198 202 203 206 214 220 228 235 252 265 277 274 270 269 271 268 270 269 266 263 264 268 274 281 285 283 288 284 290 285
196 197 194 194 194 197 197 198 199 199 200 201 200 198 196 202 208 209 208 224 240 243 257 271 269 270 268 272 275 279 280 281 278 276 281 279 281 281 283 282 284 286 287
192 189 188 187 188 190 195 197 196 196 196 197 197 196 197 201 198 196 204 219 228 242 258 268 272 272 274 276 281 284 283 281 280 280 280 278 283 282 283 281 279 279 279
183 183 184 184 183 185 190 190 190 192 194 195 195 194 195 196 193 198 205 223 236 245 260 265 271 278 280 288 287 285 282 282 280 275 269 272 272 276 270 267 268 269 274
181 185 185 183 179 180 182 184 185 185 187 192 195 191 193 189 188 191 199 217 230 246 268 269 270 274 287 293 295 295 297 295 292 290 288 284 281 282 281 280 274 261 265
190 188 183 182 180 182 184 182 182 185 187 191 190 195 194 190 194 196 198 209 231 255 275 269 268 285 292 297 300 304 303 304 301 302 308 299 294 290 285 274 271 266 268
182 184 184 185 186 185 179 179 180 176 180 183 187 191 193 192 191 194 198 209 221 250 268 273 278 290 298 305 306 308 305 307 313 317 306 300 298 292 290 289 266 254 256
186 182 180 182 180 180 177 175 176 172 173 174 177 185 184 188 186 190 196 207 217 234 282 283 292 299 306 308 308 308 309 311 311 309 305 298 300 300 296 291 291 282 272
186 179 176 178 180 183 174 174 169 173 169 170 177 169 174 177 179 184 194 200 214 252 271 286 299 308 312 312 314 315 314 310 307 305 303 300 302 302 299 294 291 284 277
178 175 174 172 171 177 178 178 173 178 174 174 176 162 159 171 181 177 182 182 203 238 253 293 314 323 316 314 312 317 311 309 304 297 304 302 301 304 301 298 295 290 288
178 174 176 181 176 174 181 181 177 187 183 177 178 163 162 175 183 170 173 186 186 203 278 311 360 353 335 332 323 320 315 310 306 303 309 300 304 305 301 299 291 294 286
177 179 190 182 179 177 176 172 186 186 180 180 175 171 171 170 169 171 168 156 154 130 66 20 342 341 337 318 320 318 315 312 311 310 309 299 309 308 306 306 299 290 286
196 182 182 181 186 183 181 171 159 165 164 160 150 146 157 162 171 162 153 131 143 153 66 24 330 344 326 311 312 311 312 313 314 310 310 301 309 313 311 306 300 293 287
202 191 177 181 184 180 181 176 163 161 153 151 152 151 156 161 163 160 147 147 135 106 60 15 336 346 330 316 316 310 313 314 316 310 313 306 313 317 313 308 302 295 291
192 190 185 175 181 178 173 168 165 162 143 143 147 151 160 163 160 153 143 160 129 112 58 2 347 338 329 335 331 323 316 311 311 308 313 308 319 319 313 309 304 301 295
192 185 171 168 169 170 164 154 153 148 144 148 152 151 162 161 158 164 157 142 154 105 52 354 347 341 340 333 333 333 326 317 315 313 316 316 324 320 315 313 310 305 298
176 167 163 160 164 166 161 147 145 137 142 147 147 162 168 169 166 162 155 157 169 97 41 344 338 351 346 337 339 339 329 315 313 314 315 326 326 322 320 316 313 306 302
158 158 158 154 151 150 142 140 139 136 141 143 146 159 163 165 159 157 162 168 145 118 6 337 345 360 350 344 344 337 329 315 314 317 317 331 328 326 325 322 319 316 312
148 149 148 150 148 137 132 135 133 136 138 141 148 145 160 158 158 158 167 171 210 255 342 331 344 358 355 354 347 342 335 322 318 319 323 333 330 330 329 326 325 324 320
138 142 141 138 135 130 132 129 130 135 139 145 157 160 156 161 157 156 175 200 257 323 332 331 341 357 353 350 347 345 343 338 336 325 340 335 332 333 332 331 331 330 327
128 128 129 127 128 127 124 126 129 134 143 152 155 155 158 158 152 161 197 238 299 331 346 342 347 357 346 345 345 346 346 342 343 341 345 340 339 338 337 335 336 335 334
110 111 114 117 117 120 122 125 127 136 144 153 152 155 158 159 162 182 204 271 311 335 339 346 358 350 340 338 347 348 346 342 339 349 346 343 344 344 343 340 341 342 341